Shungnak AP, Shungnak, AK, AK

12:27 PM AKST on December 14, 2019 (GMT -0900)
Shungnak AP, Shungnak, AK

Weather History for PAGH - October, 2019

Change the Weather History Date:

Monday, October 28, 2019

  Actual Average (WUND) Record (WUND)
Temperature  
Mean Temperature 36 °F -  
Max Temperature 37 °F - - (-1)
Min Temperature 34 °F - - (-1)
Degree Days  
Heating Degree Days 30    
Moisture  
Dew Point 34 °F    
Average Humidity 92    
Maximum Humidity 100    
Minimum Humidity 86    
Precipitation  
Precipitation 0.20 in - - ()
Sea Level Pressure  
Sea Level Pressure 29.65 in    
Wind  
Wind Speed 22 mph (ESE)    
Max Wind Speed 30 mph    
Max Gust Speed 38 mph    
Visibility 10 miles    
Events Rain    
Averages and records for this station are not official NWS values.
T = Trace of Precipitation, MM = Missing Value Source: NWS Daily Summary

Daily Weather History Graph

Daily Weather History Graph

Search for Another Location

Airport or City:

Astronomy

Oct. 28, 2019 Rise Set
Actual Time 10:15 AM AKDT 6:08 PM AKDT
Civil Twilight 9:16 AM AKDT 7:07 PM AKDT
Nautical Twilight 8:13 AM AKDT 8:09 PM AKDT
Astronomical Twilight 7:11 AM AKDT 9:11 PM AKDT
Moon 10:50 AM AKDT (10/28) 6:49 PM AKDT (10/28)
Length of Visible Light 9h 50m
Length of Day
7h 52m
New Moon, 1% of the Moon is Illuminated
Oct 28
New Moon
Nov 4
First Quarter
Nov 12
Full
Nov 19
Last Quarter
Nov 26
New

Hourly Weather History & Observations

Time (AKDT) Temp. Windchill Dew Point Humidity Pressure Visibility Wind Dir Wind Speed Gust Speed Precip Events Conditions
12:56 AM 36.0 °F 24.7 °F 33.1 °F 89% 29.72 in 10.0 mi East 21.9 mph 38.0 mph N/A   Overcast
1:09 AM 35.6 °F 22.5 °F 33.8 °F 93% 29.71 in 10.0 mi ESE 29.9 mph 36.8 mph N/A   Overcast
1:49 AM 37.4 °F 25.9 °F 33.8 °F 87% 29.71 in 10.0 mi ESE 25.3 mph 35.7 mph N/A   Overcast
1:56 AM 37.0 °F 25.1 °F 33.1 °F 86% 29.73 in 10.0 mi ESE 26.5 mph 33.4 mph N/A   Overcast
2:56 AM 36.0 °F 23.9 °F 33.1 °F 89% 29.74 in 10.0 mi ESE 25.3 mph 34.5 mph N/A   Scattered Clouds
3:56 AM 37.0 °F 25.9 °F 33.1 °F 86% 29.74 in 10.0 mi ESE 23.0 mph 31.1 mph N/A   Overcast
4:18 AM 37.4 °F 26.6 °F 33.8 °F 87% 29.72 in 10.0 mi East 21.9 mph 29.9 mph N/A   Overcast
4:28 AM 35.6 °F 24.2 °F 33.8 °F 93% 29.72 in 10.0 mi ESE 21.9 mph 29.9 mph N/A   Overcast
4:56 AM 36.0 °F 24.7 °F 33.1 °F 89% 29.72 in 10.0 mi East 21.9 mph 29.9 mph N/A   Overcast
5:56 AM 37.0 °F 26.2 °F 33.1 °F 86% 29.72 in 10.0 mi ESE 21.9 mph 32.2 mph N/A   Overcast
6:28 AM 35.6 °F 25.2 °F 33.8 °F 93% 29.69 in 8.0 mi ESE 18.4 mph 27.6 mph 0.00 in Rain Light Rain
6:56 AM 35.1 °F 24.5 °F 34.0 °F 96% 29.70 in 8.0 mi ESE 18.4 mph 25.3 mph 0.01 in Rain Light Rain
7:56 AM 36.0 °F 24.7 °F 34.0 °F 93% 29.68 in 10.0 mi ESE 21.9 mph 29.9 mph 0.00 in   Overcast
8:43 AM 35.6 °F 24.5 °F 33.8 °F 93% 29.65 in 10.0 mi ESE 20.7 mph 31.1 mph N/A   Overcast
8:56 AM 36.0 °F 25.0 °F 34.0 °F 93% 29.68 in 10.0 mi ESE 20.7 mph 27.6 mph N/A   Overcast
9:56 AM 36.0 °F 25.3 °F 34.0 °F 93% 29.66 in 10.0 mi ESE 19.6 mph 25.3 mph 0.00 in Rain Light Rain
10:56 AM 36.0 °F 25.6 °F 33.1 °F 89% 29.64 in 10.0 mi ESE 18.4 mph 25.3 mph 0.00 in   Mostly Cloudy
11:56 AM 37.0 °F 26.4 °F 33.1 °F 86% 29.63 in 10.0 mi ESE 20.7 mph 26.5 mph N/A   Overcast
12:56 PM 37.0 °F 26.7 °F 34.0 °F 89% 29.62 in 10.0 mi East 19.6 mph 26.5 mph 0.00 in   Overcast
1:08 PM 37.4 °F 27.8 °F 33.8 °F 87% 29.60 in 10.0 mi East 17.3 mph 23.0 mph N/A   Overcast
1:56 PM 37.0 °F 27.0 °F 34.0 °F 89% 29.61 in 10.0 mi East 18.4 mph 25.3 mph N/A   Overcast
2:19 PM 37.4 °F 28.2 °F 33.8 °F 87% 29.59 in 10.0 mi ESE 16.1 mph 23.0 mph 0.00 in Rain Light Rain
2:56 PM 36.0 °F 25.6 °F 35.1 °F 97% 29.60 in 10.0 mi ESE 18.4 mph 26.5 mph 0.01 in Rain Light Rain
3:41 PM 35.6 °F 25.2 °F 35.6 °F 100% 29.57 in 10.0 mi ESE 18.4 mph 24.2 mph 0.02 in Rain Light Rain
3:56 PM 36.0 °F 24.4 °F 35.1 °F 97% 29.59 in 10.0 mi ESE 23.0 mph 27.6 mph 0.03 in Rain Light Rain
4:24 PM 35.6 °F 25.2 °F 33.8 °F 93% 29.57 in 10.0 mi East 18.4 mph - 0.01 in Rain Light Rain
4:56 PM 35.1 °F 24.1 °F 34.0 °F 96% 29.59 in 10.0 mi East 19.6 mph - 0.03 in Rain Light Rain
5:56 PM 35.1 °F 25.2 °F 33.1 °F 92% 29.59 in 8.0 mi East 16.1 mph 26.5 mph 0.03 in   Overcast
6:56 PM 34.0 °F 24.2 °F 33.1 °F 96% 29.60 in 10.0 mi ESE 15.0 mph - 0.01 in Rain Light Rain
7:56 PM 34.0 °F 23.4 °F 33.1 °F 96% 29.60 in 10.0 mi East 17.3 mph - 0.01 in Rain Light Rain
8:56 PM 34.0 °F 23.8 °F 33.1 °F 96% 29.61 in 10.0 mi East 16.1 mph 21.9 mph 0.00 in   Overcast
9:56 PM 34.0 °F 23.8 °F 33.1 °F 96% 29.61 in 10.0 mi ESE 16.1 mph - 0.00 in Rain Light Rain
10:56 PM 34.0 °F 24.2 °F 33.1 °F 96% 29.62 in 10.0 mi ESE 15.0 mph - 0.03 in   Overcast
11:56 PM 35.1 °F 25.9 °F 34.0 °F 96% 29.62 in 10.0 mi ESE 13.8 mph - 0.04 in Rain Light Rain